Location: ???????
(55.5931°N, 39.3286°E)
Time: 19:03:48
(UTC+00:00)

Okean 1 - Pass Details

Date: 14 April 2024
Orbit: 507 x 530 km, 82.5° (Epoch: 17 May)

Event Time Altitude Azimuth Distance (km) Brightness Sun altitude
Exits shadow 00:54:10 16° 211° (SSW) 1,410 4.8 -11.6°
Maximum altitude 00:57:05 54° 286° (WNW) 631 3.4 -11.2°
Drops below altitude 10° 01:00:50 10° 5° (N) 1,742 6.5 -10.8°
Sets 01:03:00 0° 10° (N) 2,631 7.5 -10.5°
